Weather History for Hartford, CT

Change the Weather History Date:

Monday, February 11, 2013

  Actual Average Record
Temperature  
Mean Temperature 30 °F -  
Max Temperature 42 °F 36 °F 60 °F (2009)
Min Temperature 19 °F 14 °F -9 °F (1948)
Degree Days  
Heating Degree Days 35    
Moisture  
Dew Point 32 °F    
Average Humidity 94    
Maximum Humidity 100    
Minimum Humidity 78    
Precipitation  
Precipitation 0.26 in - - ()
Sea Level Pressure  
Sea Level Pressure 29.89 in    
Wind  
Wind Speed 1 mph (NNE)    
Max Wind Speed 7 mph    
Max Gust Speed -    
Visibility 3 miles    
Events Rain , Snow    
Averages and records for this station are not official NWS values.
T = Trace of Precipitation, MM = Missing Value Source: NWS Daily Summary

Daily Weather History Graph

Daily Weather History Graph

Search for Another Location

Airport:

Trip Planner

Search our weather history database for the weather conditions in past years. The results will help you decide how hot, cold, wet, or windy it might be!

Date:

Astronomy

Feb. 11, 2013 Rise Set
Actual Time 6:51 AM EST 5:19 PM EST
Civil Twilight 6:22 AM EST 5:47 PM EST
Nautical Twilight 5:49 AM EST 6:20 PM EST
Astronomical Twilight 5:17 AM EST 6:53 PM EST
Moon 7:11 AM EST (2/11) 7:15 PM EST (2/11)
Length of Visible Light 11h 25m
Length of Day
10h 28m
Waxing Crescent, 3% of the Moon is Illuminated
Feb 11
Waxing Crescent
Feb 17
First Quarter
Feb 25
Full
Mar 4
Last Quarter
Mar 11
New

Hourly Weather History & Observations

Time (EST) Temp. Windchill Dew Point Humidity Pressure Visibility Wind Dir Wind Speed Gust Speed Precip Events Conditions
12:53 AM 19.9 °F - 16.0 °F 85% 30.33 in 10.0 mi Calm Calm - N/A   Clear
1:53 AM 21.9 °F - 17.1 °F 82% 30.32 in 10.0 mi Calm Calm - N/A   Clear
2:53 AM 21.0 °F - 16.0 °F 81% 30.28 in 10.0 mi Calm Calm - N/A   Clear
3:53 AM 23.0 °F - 18.0 °F 81% 30.24 in 10.0 mi Calm Calm - N/A   Overcast
4:53 AM 25.0 °F - 19.9 °F 81% 30.24 in 10.0 mi Calm Calm - N/A   Mostly Cloudy
5:53 AM 26.1 °F - 21.0 °F 81% 30.21 in 10.0 mi Calm Calm - N/A   Overcast
6:53 AM 28.0 °F - 21.9 °F 78% 30.18 in 10.0 mi Calm Calm - 0.00 in   Overcast
7:53 AM 28.0 °F - 24.1 °F 85% 30.13 in 7.0 mi Calm Calm - 0.01 in   Overcast
8:51 AM 30.2 °F - 26.6 °F 86% 30.09 in 4.0 mi Calm Calm - 0.01 in Snow Light Snow
8:53 AM 30.9 °F 27.5 °F 27.0 °F 85% 30.09 in 3.0 mi NNE 3.5 mph - 0.01 in Rain Light Freezing Rain
9:10 AM 30.2 °F - 28.4 °F 93% 30.07 in 2.5 mi Calm Calm - 0.00 in Rain Light Freezing Rain
9:22 AM 30.2 °F 26.7 °F 28.4 °F 93% 30.06 in 1.8 mi North 3.5 mph - 0.02 in Rain Light Freezing Rain
9:36 AM 30.2 °F - 28.4 °F 93% 30.05 in 2.0 mi Calm Calm - 0.03 in Rain Light Freezing Rain
9:53 AM 30.9 °F 27.5 °F 28.9 °F 92% 30.03 in 1.2 mi North 3.5 mph - 0.03 in Rain Light Freezing Rain
10:02 AM 32.0 °F 27.5 °F 30.2 °F 93% 30.02 in 1.0 mi North 4.6 mph - 0.01 in Rain Light Freezing Rain
10:23 AM 30.2 °F 23.4 °F 30.2 °F 100% 30.01 in 0.8 mi North 6.9 mph - 0.03 in Rain Light Freezing Rain
10:53 AM 32.0 °F - 30.9 °F 96% 29.98 in 0.5 mi Calm Calm - 0.10 in Rain Light Freezing Rain
11:01 AM 32.0 °F 28.7 °F 32.0 °F 100% 29.97 in 0.5 mi North 3.5 mph - 0.02 in Rain Light Freezing Rain
11:27 AM 33.8 °F 30.8 °F 32.0 °F 93% 29.97 in 1.0 mi North 3.5 mph - 0.05 in Rain Light Freezing Rain
11:51 AM 33.8 °F - 32.0 °F 93% 29.94 in 0.8 mi Calm Calm - 0.08 in Rain Light Freezing Rain
11:53 AM 33.1 °F - 32.0 °F 96% 29.94 in 0.8 mi Calm Calm - 0.08 in Rain Light Freezing Rain
12:53 PM 34.0 °F - 33.1 °F 96% 29.87 in 0.8 mi Calm Calm - 0.01 in Rain Light Freezing Rain
1:53 PM 34.0 °F - 34.0 °F 100% 29.80 in 0.8 mi Calm Calm - 0.02 in Rain Light Freezing Rain
2:06 PM 35.6 °F - 33.8 °F 93% 29.80 in 1.0 mi Calm Calm - 0.00 in Rain Light Freezing Rain
2:31 PM 33.8 °F - 33.8 °F 100% 29.79 in 0.8 mi Calm Calm - 0.00 in Rain Light Freezing Rain
2:38 PM 33.8 °F - 33.8 °F 100% 29.80 in 0.8 mi Calm Calm - 0.00 in Rain Light Freezing Rain
2:53 PM 35.1 °F 32.2 °F 34.0 °F 96% 29.79 in 0.8 mi NE 3.5 mph - 0.00 in Rain Light Freezing Rain
3:05 PM 35.6 °F 32.8 °F 33.8 °F 93% 29.78 in 0.5 mi NE 3.5 mph - 0.00 in Rain Light Freezing Rain
3:53 PM 36.0 °F - 36.0 °F 100% 29.75 in 0.2 mi Calm Calm - 0.00 in Rain Light Freezing Rain
4:34 PM 35.6 °F - 35.6 °F 100% 29.73 in 0.2 mi Calm Calm - 0.00 in Rain Light Freezing Rain
4:53 PM 35.1 °F - 35.1 °F 100% 29.72 in 0.2 mi Calm Calm - 0.00 in Rain Light Freezing Rain
5:48 PM 37.4 °F 33.8 °F 37.4 °F 100% 29.71 in 0.2 mi South 4.6 mph - 0.00 in Rain Light Freezing Rain
5:53 PM 41.0 °F 38.0 °F 39.9 °F 96% 29.71 in 0.2 mi South 4.6 mph - 0.00 in Rain Light Freezing Rain
6:53 PM 39.9 °F 35.8 °F 39.9 °F 100% 29.69 in 0.2 mi South 5.8 mph - 0.00 in Rain Light Freezing Rain
7:53 PM 37.9 °F 35.5 °F 37.9 °F 100% 29.67 in 0.2 mi South 3.5 mph - 0.00 in Rain Light Freezing Rain
8:39 PM 39.2 °F 35.0 °F 39.2 °F 100% 29.66 in 0.2 mi South 5.8 mph - 0.00 in Rain Light Freezing Rain
8:53 PM 39.9 °F 37.8 °F 39.9 °F 100% 29.66 in 0.2 mi South 3.5 mph - 0.00 in Rain Light Freezing Rain
9:45 PM 39.2 °F - 39.2 °F 100% 29.66 in 2.5 mi Calm Calm - 0.00 in Rain Light Freezing Rain
9:48 PM 41.0 °F - 39.2 °F 93% 29.66 in 5.0 mi Calm Calm - 0.00 in Rain Light Freezing Rain
9:53 PM 39.9 °F - 39.9 °F 100% 29.66 in 9.0 mi Calm Calm - 0.00 in Rain Light Freezing Rain
10:08 PM 39.2 °F - 39.2 °F 100% 29.65 in 4.0 mi Calm Calm - 0.00 in Rain Light Freezing Rain
10:10 PM 39.2 °F - 39.2 °F 100% 29.65 in 1.8 mi Calm Calm - 0.00 in Rain Light Freezing Rain
10:22 PM 37.4 °F - 37.4 °F 100% 29.66 in 3.0 mi Calm Calm - 0.00 in Rain Light Freezing Rain
10:32 PM 39.2 °F - 39.2 °F 100% 29.66 in 6.0 mi Calm Calm - 0.00 in   Overcast
10:53 PM 37.0 °F - 37.0 °F 100% 29.67 in 6.0 mi Calm Calm - 0.00 in   Overcast
11:53 PM 42.1 °F 38.4 °F 37.0 °F 82% 29.68 in 10.0 mi North 5.8 mph - N/A   Overcast